CZ-4 DEB, 27762

Orbit data source: Space-Track

CZ-4 DEB, 27762 is space debris in SSO originally from a launch on Thu, 14 Oct 1999 UTC launched from the Taiyaun Space Center, China (TSC). Debris objects in space refer to the collection of defunct objects orbiting the Earth. Examples of debris include non-operational satellites, rocket bodies, and fragments generated from explosions, collisions, or faulty payload assembly.

Loading next visibility...
Identifier
27762, 1999-057MV
Orbit
SSO
Country
Flag of CNCN / PRC
Related business
Manufacturer
Unknown
Mission
Spacecraft
Bus & Motor
Unknown
Mass
Unknown
Launch date (UTC)
1999-10-14 (26 years ago)
Launch vehicle
Unknown
Launch site
Taiyaun Space Center, China (TSC)
Object type
Payload
Rocket body
Debris
Shape & HBR
Unknown shape, 0.1 m
Radar Cross Section
Small (<0.1 m²)

Expand to show TLE details & history
Last TLE update: 1 day ago

TLE from 1 day ago
0 CZ-4 DEB
1 27762U 99057MV  26037.30078862  .00001907  00000-0  79033-3 0  9998
2 27762  98.6693 157.3786 0167821 104.4828 286.0439 14.20342860244536
Epoch: 2026-02-06T07:13Z
TLE epoch observation values (Epoch: 2026-02-06T07:13:08.136Z)
Latitude
28.3559°
Longitude
-92.041°
Altitude
796.162 km
Speed
7.474 km/s
True Right ascension
10h 10m 44s
True Declination
28° 12' 47"
Sunlit
Object was in full shadow at epoch
Visualization orbit readout
Latitude
Unknown
Longitude
Unknown
Altitude
Unknown
Speed
Unknown
Apparent Right ascension
Unknown
Apparent Declination
Unknown
Sunlit
N/A
Visualization observer readout
Local Sidereal Time
12:23:12
Azimuth
Unknown
Elevation
Unknown
Doppler factor
Unknown
Orbital elements
Apogee altitude
942.171 km
Perigee altitude
700.526 km
Semi-major axis
7,199.486 km
Eccentricity
0.01678
Inclination
98.6693°
RAAN
157.3786°
Arg. of periapsis
104.4828°
True anomaly
284.18527°
Mean anomaly
286.0439°
Eccentric anomaly
285.11562°
Mean motion
3.55297 °/min
Orbital period
101.32 mins
BSTAR
0.00079033
Loading maneuver chart data...
Computing Atmospheric mass density...

Documentation

Showing up to 5 results
|